User: anonymous   Login
Location: Banios
(43.0451°N, 0.2335°E)
Time: 23:17:18
(UTC+00:00)
Language:

Cosmos 540 Rocket - Orbit

View from above orbital plane
View from above orbital plane
View from above satellite
View from above satellite

Ground track
Ground track

The orbit data is extracted from the following two-line orbital elements,

1 06324U 72104B   21104.26429682  .00000069  00000-0  28304-4 0  9992
2 06324  74.0794  36.5875 0009239 183.5566 176.5527 14.43526614536888
Epoch (UTC): 14 April 2021 06:20:35
Eccentricity: 0.0009239
inclination: 74.0794°
perigee height: 740 km
apogee height: 753 km
right ascension of ascending node: 36.5875°
argument of perigee: 183.5566°
revolutions per day: 14.43526614
mean anomaly at epoch: 176.5527°
orbit number at epoch: 53688

The dashed part of the orbit path shows where the satellite is in the earth's shadow,  

DLR